KKS-1 (KISEKI) (33499 NORAD) Tracking and Keplerian Element Data

This shows tracking and keplerian element data for the satellite.

Feedback or suggestion? Click here.




ElementValue
Catalog33499
NameKKS-1 (KISEKI)
Epoch Orbit84551
Epoch Day286.8519837
Epoch Year2024
RAAN189.8154
Inclination98.1258
Eccentricity0.000998
Argument of Perigee106.9782
Mean Anonmoly253.2524
Mean Motion14.79788676
Decay Rate6.186E-05
L11 33499U 09002H 24286.85198370 .00006186 00000+0 82790-3 0 9991
L22 33499 98.1258 189.8154 0009980 106.9782 253.2524 14.79788676845517



Live tracking and technical data element details for KKS-1 (KISEKI) (NORAD 33499). KKS-1 (KISEKI) can be tracked NOW for your location showing map with azimuth and elevation plus other details from your city location.







IsCatalogInMostPopularTable: catalog: 33499, numindb: 420
Update: records affected: 1



GetName: 33499 KKS-1 (KISEKI)

Hit Count: updated at: Thu, 23 Jan 2025 16:26:29 GMT